sat.trackr.live / text

‹ back to catalog

STARLINK-34798

NORAD 65063 · 2025-165H

PAYLOAD ACTIVE UNKNOWN

§ Identity

Operator
Country
US
Launch date
2025-07-31
Launch site
AFWTR
Launch vehicle
Mass (kg)
RCS (m²)

Purposes: comms

External: N2YO · Heavens-Above · Gunter

§ Orbital elements

Epoch: 2026-09-20T22:00:03.000096Z

Period
93.91 min
Inclination
97.2858°
Eccentricity
0.0001578
Mean motion
15.33445262 rev/d
Perigee alt
464.5 km
Apogee alt
466.6 km
Semi-major
6,843.7 km
B*
-6.7834e-4
RAAN
335.1402°
Arg perigee
95.9487°
Mean anomaly
119.8200°
Rev number
579

§ Raw data

STARLINK-347981 65063U 25165H   26263.91670139 -.00021912  00000+0 -67834-3 0  99912 65063  97.2858 335.1402 0001578  95.9487 119.8200 15.33445262  5799

JSON: /api/v1/satellites/65063 · /tle

For live sub-satellite position, see the globe view (requires WebGL).

§ Visibility from observer

Set your observer location to see the next 7 days of passes ≥ 10°. The values pass through the URL so the page stays shareable.

No JS? Fill the form by hand. The geolocation button needs JavaScript.